Location: Wanzleben
(52.0609°N, 11.4408°E)
Time: 01:17:07
(UTC+00:00)

USA 238 - Pass Details

Date: 18 September 2020
Orbit: 1006 x 1206 km, 63.4° (Epoch: 15 October)

Event Time Altitude Azimuth Distance (km) Brightness Sun altitude
Rises 17:40:40 0° 309° (NW) 3,892 7.8 -3.8°
Reaches altitude 10° 17:43:22 10° 314° (NW) 2,963 7.0 -4.2°
Maximum altitude 17:50:17 53° 31° (NNE) 1,375 4.2 -5.3°
Drops below altitude 10° 17:57:30 10° 108° (ESE) 3,091 5.4 -6.4°
Enters shadow 17:58:17 - 110° (ESE) 3,357 5.6 -6.5°
